Showing default

PICO-02E025, 60572

Orbit data source: Space-Track

PICO-02E025, 60572 is a payload satellite owned by Apogeo Space (IT) in SSO that was launched on Fri, 16 Aug 2024 UTC via an FALCON 9 launch vehicle from the Air Force Western Test Range (AFWTR). Payload-class satellites include a variety of spacecraft equipped with specific instruments for various scientific and technological missions. These include communications satellites like Starlink; space stations such as the ISS; scientific satellites like the Hubble; Earth observation satellites from companies like Planet Labs, Umbra, and HawkEye 360; GPS; miniature CubeSats for education and research; and military/defense satellites.

Loading next visibility...
Identifier
60572, 2024-149DJ
Orbit
SSO
Country
Flag of ITIT
Related business
Manufacturer
Apogeo Space
Mission
Operational Commercial Communications
Bus & Motor
CUBESAT 0.3U, Unknown motor
Mass
0.5 kg wet, 0.5 kg dry
Launch date (UTC)
2024-08-16 (1 year ago)
Launch vehicle
FALCON 9
Launch site
Air Force Western Test Range (AFWTR)
Object type
Payload
Rocket body
Debris
Shape & HBR
Box, 0.1 m
Radar Cross Section
0.008 m², Medium (>0.1 m² and < 1m²)

Expand to show TLE details & history
Last TLE update: 6 hours ago

TLE from 6 hours ago
0 PICO-02E025
1 60572U 24149DJ  25297.77222676  .00159278  00000-0  37883-2 0  9997
2 60572  97.7109  24.9866 0002465 292.6625  67.4359 15.41014525 65596
Epoch: 2025-10-24T18:32Z
TLE epoch observation values (Epoch: 2025-10-24T18:32:00.392Z)
Latitude
-0.00008°
Longitude
73.57264°
Altitude
445.579 km
Speed
7.645 km/s
True Right ascension
01h 39m 56s
True Declination
0° 00' 00"
Sunlit
Object was in full shadow at epoch
Visualization orbit readout
Latitude
Unknown
Longitude
Unknown
Altitude
Unknown
Speed
Unknown
Apparent Right ascension
Unknown
Apparent Declination
Unknown
Sunlit
N/A
Visualization observer readout
Local Sidereal Time
20:02:15
Azimuth
Unknown
Elevation
Unknown
Doppler factor
Unknown
Orbital elements
Apogee altitude
441.746 km
Perigee altitude
438.384 km
Semi-major axis
6,818.202 km
Eccentricity
0.00025
Inclination
97.7109°
RAAN
24.9866°
Arg. of periapsis
292.6625°
True anomaly
67.46199°
Mean anomaly
67.4359°
Eccentric anomaly
67.44894°
Mean motion
3.85512 °/min
Orbital period
93.38 mins
BSTAR
0.0037883
Loading maneuver chart data...
Computing Atmospheric mass density...
Loading historical data...
Loading historical data...
Loading historical data...
Loading historical data...
Loading historical data...
Loading historical data...
Loading historical data...

Documentation

Showing up to 5 results
|